Weather in Budva

Montenegro     42°17′20″N   18°50′38″E
temp.,
°C
wind,
m/s
gust,
m/s
humid.,
%
clouds,
%
prec.,
mm/h
press.,
hPa
HPBL,
m
22 april, thu
thu2223:00+12e33655 0.0 1022312
02:00+12e4468100 0.0 1022316
05:00+12ene5467100 0.0 1021181
08:00+13e4462100 0.0 1022255
11:00+14ese4658100 0.0 1022668
14:00+12e5679100 2.3 1022445
17:00+11ene7880100 3.8 1020459
20:00+11ene7882100 9.1 1020395
23 april, fri
fri2323:00+11e6885100 7.1 1019432
02:00+11ese4492100 25.6 1019374
05:00+12ene5688100 19.7 1018331
08:00+12ene7785100 31.3 1020299
11:00+13ene7778100 2.3 1021299
14:00+13ene6675100 3.3 1021298
17:00+13ene6674100 0.1 1020242
20:00+13ne4470100 0.1 1021210
24 april, sat
sat2423:00+13ne4470100 0.0 1020164
02:00+13ne5465100 0.0 1019149
05:00+13ene5564100 0.0 1018215
08:00+13ne5561100 0.0 1018224
11:00+14ne4551100 0.0 1018456
14:00+15nne2353100 0.0 1018395
17:00+16nnw2259100 0.0 1016125
20:00+14nw456895 0.0 1017185
25 april, sun
sun2523:00+14ne43631 0.0 101886
02:00+13ene54613 0.0 1017106
05:00+13ne54590 0.0 1017118
08:00+14ene33558 0.0 1017153
11:00+15wsw21525 0.0 1018254
14:00+15w335980 0.0 1017305
17:00+15nw45631 0.0 1017249
20:00+14nw23685 0.0 1017101
26 april, mon
mon2623:00+15nnw227042 0.0 101854
02:00+15ene116948 0.0 101822
05:00+14ene326835 0.0 101783
08:00+15e116597 0.0 1017108
11:00+15ssw326599 0.0 1018249
14:00+15sse337013 0.0 1016320
17:00+15sse226898 0.0 1016183
20:00+15ese4569100 0.0 1015109